When you browse on this site, cookies collect data to enhance your experience and personalize the content and advertising you see.
Visit our Privacy Policy to learn more. By continuing to use the site, you agree to this use of cookies and data.
  • In United Kingdom
  • List of Countries
  • For 7 days
  • Water Temperature
  • Weather Map
  • Weather Widgets
  • user-avatar
    Login

    Hourly Weather Pivneva Hora

    Today, 22 August, Thursday

    Time Temperature Precipitation Wind Pressure Humidity
    00:00 +17°C° 0.5 mm 5 mps 749 mmHg 91%
    01:00 +16°C° 0.5 mm 5 mps 749 mmHg 92%
    02:00 +15°C° 0.5 mm 5 mps 749 mmHg 93%
    03:00 +14°C° 0 mm 5 mps 749 mmHg 93%
    04:00 +14°C° 0 mm 4 mps 749 mmHg 93%
    05:00 +14°C° 0 mm 4 mps 749 mmHg 93%
    06:00 +14°C° 0.1 mm 4 mps 750 mmHg 92%
    07:00 +14°C° 0.1 mm 4 mps 750 mmHg 90%
    08:00 +15°C° 0.1 mm 4 mps 751 mmHg 88%
    09:00 +17°C° 0 mm 4 mps 751 mmHg 84%
    10:00 +18°C° 0 mm 4 mps 751 mmHg 80%
    11:00 +19°C° 0 mm 4 mps 751 mmHg 76%
    12:00 +20°C° 0 mm 4 mps 751 mmHg 71%
    13:00 +22°C° 0 mm 4 mps 751 mmHg 66%
    14:00 +23°C° 0 mm 4 mps 751 mmHg 61%
    15:00 +23°C° 0 mm 4 mps 751 mmHg 62%
    16:00 +23°C° 0 mm 4 mps 750 mmHg 62%
    17:00 +23°C° 0 mm 4 mps 750 mmHg 63%
    18:00 +22°C° 0 mm 3 mps 750 mmHg 68%
    19:00 +20°C° 0 mm 3 mps 750 mmHg 74%
    20:00 +19°C° 0 mm 3 mps 751 mmHg 79%
    21:00 +18°C° 0 mm 3 mps 751 mmHg 80%
    22:00 +18°C° 0 mm 3 mps 751 mmHg 81%
    23:00 +17°C° 0 mm 3 mps 751 mmHg 82%

    Tomorrow, 23 August, Friday

    Time Temperature Precipitation Wind Pressure Humidity
    00:00 +17°C° 0.1 mm 3 mps 751 mmHg 83%
    01:00 +17°C° 0.1 mm 2 mps 751 mmHg 84%
    02:00 +17°C° 0.1 mm 2 mps 751 mmHg 84%
    03:00 +16°C° 0.1 mm 3 mps 751 mmHg 85%
    04:00 +16°C° 0.1 mm 3 mps 751 mmHg 86%
    05:00 +16°C° 0.1 mm 3 mps 751 mmHg 87%
    06:00 +17°C° 0 mm 3 mps 751 mmHg 86%
    07:00 +18°C° 0 mm 3 mps 751 mmHg 84%
    08:00 +18°C° 0 mm 3 mps 751 mmHg 82%
    09:00 +20°C° 0 mm 3 mps 751 mmHg 75%
    10:00 +21°C° 0 mm 3 mps 751 mmHg 67%
    11:00 +24°C° 0 mm 3 mps 752 mmHg 60%
    12:00 +24°C° 0 mm 3 mps 751 mmHg 58%
    13:00 +25°C° 0 mm 4 mps 751 mmHg 55%
    14:00 +26°C° 0 mm 4 mps 751 mmHg 52%
    15:00 +25°C° 0 mm 4 mps 751 mmHg 54%
    16:00 +25°C° 0 mm 3 mps 751 mmHg 55%
    17:00 +25°C° 0 mm 3 mps 750 mmHg 57%
    18:00 +22°C° 0 mm 3 mps 750 mmHg 62%
    19:00 +20°C° 0 mm 3 mps 750 mmHg 66%
    20:00 +18°C° 0 mm 2 mps 751 mmHg 71%
    21:00 +18°C° 0 mm 2 mps 751 mmHg 72%
    22:00 +17°C° 0 mm 2 mps 751 mmHg 74%
    23:00 +16°C° 0 mm 2 mps 751 mmHg 76%

    Day after tomorrow, 24 August, Saturday

    Time Temperature Precipitation Wind Pressure Humidity
    00:00 +16°C° 0 mm 2 mps 751 mmHg 77%
    01:00 +15°C° 0 mm 2 mps 751 mmHg 78%
    02:00 +15°C° 0 mm 2 mps 750 mmHg 79%
    03:00 +14°C° 0 mm 2 mps 750 mmHg 81%
    04:00 +14°C° 0 mm 2 mps 750 mmHg 83%
    05:00 +13°C° 0 mm 2 mps 750 mmHg 85%
    06:00 +15°C° 0 mm 2 mps 750 mmHg 81%
    07:00 +16°C° 0 mm 2 mps 750 mmHg 77%
    08:00 +18°C° 0 mm 3 mps 750 mmHg 74%
    09:00 +19°C° 0 mm 3 mps 750 mmHg 67%
    10:00 +21°C° 0 mm 3 mps 750 mmHg 61%
    11:00 +24°C° 0 mm 3 mps 750 mmHg 54%
    12:00 +25°C° 0 mm 3 mps 750 mmHg 51%
    13:00 +25°C° 0 mm 3 mps 750 mmHg 48%
    14:00 +26°C° 0 mm 3 mps 750 mmHg 44%
    15:00 +26°C° 0 mm 3 mps 749 mmHg 48%
    16:00 +25°C° 0 mm 3 mps 749 mmHg 52%
    17:00 +25°C° 0 mm 2 mps 749 mmHg 55%
    18:00 +23°C° 0 mm 2 mps 749 mmHg 60%
    19:00 +20°C° 0 mm 2 mps 749 mmHg 64%
    20:00 +18°C° 0 mm 2 mps 749 mmHg 69%
    21:00 +18°C° 0 mm 2 mps 749 mmHg 69%
    22:00 +17°C° 0 mm 2 mps 749 mmHg 69%
    23:00 +17°C° 0 mm 2 mps 749 mmHg 70%

    25 August, Sunday

    Time Temperature Precipitation Wind Pressure Humidity
    00:00 +16°C° 0 mm 2 mps 749 mmHg 71%
    01:00 +16°C° 0 mm 2 mps 748 mmHg 72%
    02:00 +16°C° 0 mm 2 mps 748 mmHg 73%
    03:00 +15°C° 0 mm 2 mps 748 mmHg 75%
    04:00 +15°C° 0 mm 2 mps 748 mmHg 77%
    05:00 +15°C° 0 mm 2 mps 748 mmHg 80%
    06:00 +16°C° 0 mm 2 mps 748 mmHg 78%
    07:00 +17°C° 0 mm 2 mps 748 mmHg 76%
    08:00 +19°C° 0 mm 2 mps 748 mmHg 75%
    09:00 +21°C° 0 mm 2 mps 748 mmHg 71%
    10:00 +24°C° 0 mm 3 mps 748 mmHg 67%
    11:00 +25°C° 0 mm 3 mps 749 mmHg 63%
    12:00 +26°C° 0 mm 3 mps 748 mmHg 61%
    13:00 +27°C° 0 mm 3 mps 748 mmHg 59%
    14:00 +28°C° 0 mm 3 mps 748 mmHg 57%
    15:00 +27°C° 0 mm 3 mps 748 mmHg 59%
    16:00 +27°C° 0 mm 3 mps 748 mmHg 61%
    17:00 +26°C° 0 mm 3 mps 748 mmHg 63%
    18:00 +24°C° 0 mm 3 mps 748 mmHg 66%
    19:00 +22°C° 0 mm 3 mps 748 mmHg 70%
    20:00 +20°C° 0 mm 3 mps 748 mmHg 73%
    21:00 +19°C° 0 mm 2 mps 748 mmHg 73%
    22:00 +18°C° 0 mm 2 mps 748 mmHg 73%
    23:00 +18°C° 0 mm 2 mps 749 mmHg 72%

    26 August, Monday

    Time Temperature Precipitation Wind Pressure Humidity
    00:00 +17°C° 0 mm 2 mps 749 mmHg 72%
    01:00 +17°C° 0 mm 2 mps 749 mmHg 72%
    02:00 +16°C° 0 mm 2 mps 749 mmHg 72%
    03:00 +16°C° 0 mm 2 mps 749 mmHg 73%
    04:00 +15°C° 0 mm 2 mps 749 mmHg 74%
    05:00 +15°C° 0 mm 2 mps 749 mmHg 75%
    06:00 +16°C° 0 mm 3 mps 749 mmHg 73%
    07:00 +17°C° 0 mm 3 mps 749 mmHg 70%
    08:00 +19°C° 0 mm 3 mps 750 mmHg 67%
    09:00 +21°C° 0 mm 3 mps 750 mmHg 62%
    10:00 +22°C° 0 mm 3 mps 750 mmHg 58%
    11:00 +25°C° 0 mm 4 mps 750 mmHg 53%
    12:00 +26°C° 0 mm 4 mps 750 mmHg 51%
    13:00 +27°C° 0 mm 3 mps 750 mmHg 49%
    14:00 +27°C° 0 mm 3 mps 749 mmHg 48%
    15:00 +27°C° 0 mm 3 mps 749 mmHg 50%
    16:00 +26°C° 0 mm 3 mps 749 mmHg 53%
    17:00 +26°C° 0 mm 3 mps 749 mmHg 56%
    18:00 +24°C° 0 mm 3 mps 749 mmHg 61%
    19:00 +21°C° 0 mm 3 mps 748 mmHg 67%
    20:00 +19°C° 0 mm 2 mps 748 mmHg 73%
    21:00 +19°C° 0 mm 2 mps 749 mmHg 74%
    22:00 +18°C° 0 mm 2 mps 749 mmHg 74%
    23:00 +17°C° 0 mm 2 mps 749 mmHg 75%

    27 August, Tuesday

    Time Temperature Precipitation Wind Pressure Humidity
    00:00 +17°C° 0 mm 2 mps 749 mmHg 75%
    01:00 +17°C° 0 mm 2 mps 749 mmHg 74%
    02:00 +16°C° 0 mm 2 mps 748 mmHg 74%
    03:00 +16°C° 0 mm 2 mps 748 mmHg 73%
    04:00 +16°C° 0 mm 2 mps 748 mmHg 72%
    05:00 +15°C° 0 mm 2 mps 748 mmHg 71%
    06:00 +17°C° 0 mm 2 mps 748 mmHg 68%
    07:00 +18°C° 0 mm 2 mps 748 mmHg 65%
    08:00 +20°C° 0 mm 2 mps 748 mmHg 62%
    09:00 +23°C° 0 mm 2 mps 748 mmHg 58%
    10:00 +25°C° 0 mm 3 mps 748 mmHg 53%
    11:00 +27°C° 0 mm 3 mps 748 mmHg 49%
    12:00 +28°C° 0 mm 3 mps 748 mmHg 47%
    13:00 +29°C° 0 mm 3 mps 748 mmHg 45%
    14:00 +30°C° 0 mm 3 mps 748 mmHg 43%
    15:00 +30°C° 0 mm 3 mps 748 mmHg 46%
    16:00 +29°C° 0 mm 2 mps 747 mmHg 49%
    17:00 +29°C° 0 mm 2 mps 747 mmHg 52%
    18:00 +27°C° 0 mm 2 mps 747 mmHg 57%
    19:00 +25°C° 0 mm 2 mps 747 mmHg 62%
    20:00 +22°C° 0 mm 3 mps 747 mmHg 67%
    21:00 +21°C° 0 mm 3 mps 747 mmHg 67%
    22:00 +20°C° 0 mm 3 mps 747 mmHg 67%
    23:00 +20°C° 0 mm 3 mps 747 mmHg 67%
    Show more